Location: UBC Liquid-Mirror Observatory
(49.2876°N, 122.5728°W)
Time: 15:28:32
(UTC-07:00)

Amateur Radio Satellites - All Passes

Search period start: 04 July 2015 14:58
Search period end: 05 July 2015 14:58
Location: UBC Liquid-Mirror Observatory, 49.2876°N, 122.5728°W

Satellite Date Start Highest point End Downlink Frequencies (MHz)
Time Altitude Azimuth
BEESAT 04 Jul 15:02:22 15:07:11 68° 103° (ESE) 15:11:57 436.000
PCSat 04 Jul 15:04:44 15:07:05 13° 104° (ESE) 15:09:42 145.827
SWISSCUBE 04 Jul 15:17:59 15:22:51 83° 287° (WNW) 15:27:40 437.505
ITUPSAT 1 04 Jul 15:23:20 15:28:11 82° 288° (WNW) 15:33:01 437.325
STARS 04 Jul 15:31:45 15:34:33 17° 89° (E) 15:37:29 437.465
O/OREOS (USA 219) 04 Jul 15:41:27 15:43:49 14° 40° (NE) 15:46:20 437.305
AO-7 04 Jul 15:44:38 15:52:58 77° 67° (ENE) 16:01:22 29.400- 29.500
AIST 1 04 Jul 15:45:19 15:49:20 36° 92° (E) 15:53:24
Gurwin Techsat 1B 04 Jul 15:51:01 15:55:23 25° 269° (W) 15:59:41 435.225
AIST 2 04 Jul 15:53:05 15:56:35 24° 33° (NNE) 16:00:06 435.215
ITAMSAT 1 04 Jul 15:56:52 16:00:58 22° 270° (W) 16:04:58 435.822/435.867
ISS 04 Jul 15:58:51 15:59:11 10° 225° (SW) 15:59:24 145.825
BEESAT 3 04 Jul 15:59:27 16:03:34 79° 49° (NE) 16:07:36 437.485
Cosmos 2504 04 Jul 16:08:27 16:14:47 31° 64° (ENE) 16:21:37 435.465 / 435.565
YUBILEINY 04 Jul 16:11:14 16:19:25 45° 272° (W) 16:27:30 435.215
JAS-2 04 Jul 16:11:17 16:16:22 56° 260° (W) 16:21:47 435.910
BEESAT 2 04 Jul 16:11:48 16:15:56 82° 49° (NE) 16:20:00 435.950
KKS-1 04 Jul 16:15:16 16:19:43 68° 102° (ESE) 16:24:07 437.445
HORYU 2 04 Jul 16:18:34 16:22:57 63° 258° (WSW) 16:27:21 437.375
MOZHAYETS 4 04 Jul 16:34:26 16:37:04 15° 87° (E) 16:39:53
Cosmos 2491 04 Jul 16:36:24 16:45:13 71° 283° (WNW) 16:54:04 435.465 / 435.565
BEESAT 04 Jul 16:41:07 16:44:35 20° 301° (WNW) 16:47:56 436.000
PCSat 04 Jul 16:44:18 16:49:43 76° 121° (ESE) 16:55:10 145.827
CUTE-I 04 Jul 16:54:01 16:57:27 18° 56° (NE) 17:01:03 437.470
SWISSCUBE 04 Jul 16:57:26 17:00:01 14° 304° (NW) 17:02:26 437.505
ITUPSAT 1 04 Jul 17:02:50 17:05:24 14° 305° (NW) 17:07:47 437.325
STARS 04 Jul 17:07:07 17:11:26 60° 289° (WNW) 17:15:44 437.465
O/OREOS (USA 219) 04 Jul 17:19:36 17:24:08 74° 62° (ENE) 17:28:40 437.305
SO-50 04 Jul 17:19:39 17:24:06 41° 120° (ESE) 17:28:43 436.795
AIST 1 04 Jul 17:23:19 17:27:06 26° 291° (WNW) 17:30:50
Cubesat XI-IV 04 Jul 17:26:47 17:31:24 31° 62° (ENE) 17:36:06 437.490
AIST 2 04 Jul 17:31:20 17:35:33 66° 235° (SW) 17:39:40 435.215
BEESAT 3 04 Jul 17:38:45 17:41:00 14° 248° (WSW) 17:43:05 437.485
AO-7 04 Jul 17:39:34 17:46:40 29° 269° (W) 17:53:36 29.400- 29.500
BEESAT 2 04 Jul 17:51:20 17:53:27 14° 248° (WSW) 17:55:25 435.950
KKS-1 04 Jul 17:52:58 17:55:54 17° 300° (WNW) 17:58:42 437.445
HO-68 04 Jul 17:59:26 18:01:24 11° 38° (NE) 18:03:39 435.675
Cosmos 2504 04 Jul 18:00:16 18:07:35 66° 266° (W) 18:15:27 435.465 / 435.565
MOZHAYETS 4 04 Jul 18:10:13 18:14:54 74° 286° (WNW) 18:19:33
BRITE-PL 04 Jul 18:14:24 18:16:03 12° 55° (NE) 18:17:52 437.365/2234.400
PCSat 04 Jul 18:29:04 18:33:42 27° 324° (NW) 18:38:19 145.827
CUTE-I 04 Jul 18:31:31 18:36:54 89° 254° (WSW) 18:42:21 437.470
CUBESAT XI-V 04 Jul 18:37:53 18:41:38 24° 91° (E) 18:45:26 437.345
Cosmos 2491 04 Jul 18:37:54 18:44:08 20° 310° (NW) 18:50:00 435.465 / 435.565
DANDE 04 Jul 18:48:51 18:51:06 19° 65° (ENE) 18:53:11 436.750
GONETS M04 04 Jul 18:50:35 18:57:13 24° 55° (NE) 19:04:05
SO-50 04 Jul 19:00:08 19:04:42 40° 321° (NW) 19:09:22 436.795
O/OREOS (USA 219) 04 Jul 19:00:23 19:03:02 15° 259° (W) 19:05:32 437.305
Cubesat XI-IV 04 Jul 19:06:08 19:11:20 48° 261° (W) 19:16:33 437.490
GOMX 1 04 Jul 19:23:53 19:27:54 25° 65° (ENE) 19:31:49 467.674
CUSAT 1 04 Jul 19:25:15 19:28:01 75° 259° (W) 19:30:35 437.405
STRAND 1 04 Jul 19:38:22 19:42:56 32° 94° (E) 19:47:31 437.568
SEEDS 04 Jul 19:40:32 19:42:54 15° 60° (ENE) 19:45:25 437.485
HO-68 04 Jul 19:40:52 19:47:22 40° 60° (ENE) 19:53:57 435.675
BRITE-PL 04 Jul 19:48:29 19:53:48 62° 73° (ENE) 19:58:48 437.365/2234.400
MOZHAYETS 4 04 Jul 19:49:31 19:51:23 12° 304° (NW) 19:53:03
AAUSAT CUBESAT 2 04 Jul 19:51:17 19:53:19 14° 59° (ENE) 19:55:31 437.432
Cosmos 2504 04 Jul 19:55:00 19:58:38 14° 285° (WNW) 20:01:55 435.465 / 435.565
DOVE 4 04 Jul 20:06:10 20:10:31 37° 68° (ENE) 20:14:41 437.250
Oscar 11 04 Jul 20:11:18 20:12:43 12° 57° (ENE) 20:14:19 145.826/435.025
CUBESAT XI-V 04 Jul 20:14:48 20:19:20 47° 290° (WNW) 20:23:48 437.345
CUTE-I 04 Jul 20:14:50 20:17:52 15° 275° (W) 20:20:40 437.470
COMPASS 1 04 Jul 20:16:03 20:19:28 26° 65° (ENE) 20:22:57 437.405
PCSat 04 Jul 20:16:37 20:19:02 13° 349° (N) 20:21:25 145.827
PRISM 04 Jul 20:20:39 20:24:53 71° 103° (ESE) 20:29:03 437.425
CUTE 1.7 + AOD 2 04 Jul 20:26:25 20:30:27 46° 70° (ENE) 20:34:32 437.475
CANX-2 04 Jul 20:29:45 20:33:51 55° 72° (ENE) 20:38:02 2200.000
DANDE 04 Jul 20:32:17 20:34:08 15° 271° (W) 20:35:46 436.750
FUNcube-1 04 Jul 20:38:56 20:40:31 12° 58° (ENE) 20:42:17 145.935
SO-50 04 Jul 20:43:24 20:46:32 16° 344° (NNW) 20:49:39 436.795
Cosmos 2499 04 Jul 20:44:24 20:50:26 25° 59° (ENE) 20:57:00 435.465 / 435.565
GONETS M04 04 Jul 20:46:49 20:55:35 87° 80° (E) 21:04:18
CINEMA 3 04 Jul 20:49:35 20:53:48 44° 70° (ENE) 20:57:54 145.822/145.860
UWE-3 04 Jul 20:50:46 20:53:46 20° 63° (ENE) 20:56:50 435.000/436.395/437.385
AUBIESAT-1 04 Jul 20:53:29 20:54:26 11° 92° (E) 20:55:38 437.475
GOMX 1 04 Jul 21:00:54 21:05:51 50° 261° (W) 21:10:29 467.674
SEEDS 04 Jul 21:14:03 21:18:13 71° 258° (WSW) 21:22:27 437.485
STRAND 1 04 Jul 21:17:25 21:22:16 41° 294° (WNW) 21:27:03 437.568
DX 1 04 Jul 21:22:55 21:25:27 16° 59° (ENE) 21:28:08 434.975-435.025
AAUSAT CUBESAT 2 04 Jul 21:24:15 21:28:24 79° 257° (WSW) 21:32:36 437.432
M-CUBED/EXP-1 PRIME 04 Jul 21:26:02 21:29:32 26° 100° (E) 21:33:17 437.505
HO-68 04 Jul 21:28:03 21:35:00 52° 260° (W) 21:41:58 435.675
BRITE-PL 04 Jul 21:28:32 21:32:42 22° 270° (W) 21:36:33 437.365/2234.400
CUBEBUG 2 04 Jul 21:35:30 21:39:42 63° 73° (ENE) 21:43:51 437.445
ZACube-1 04 Jul 21:36:24 21:40:20 41° 69° (ENE) 21:44:15 437.345
DELFI C3 04 Jul 21:37:31 21:41:22 48° 72° (ENE) 21:45:18 145.870
UKube-1 04 Jul 21:42:28 21:45:41 21° 62° (ENE) 21:48:59 .
50 SAT 04 Jul 21:43:10 21:44:42 12° 60° (ENE) 21:46:23 437.505
Oscar 11 04 Jul 21:43:56 21:48:13 80° 75° (ENE) 21:52:34 145.826/435.025
DOVE 4 04 Jul 21:44:06 21:48:21 30° 265° (W) 21:52:21 437.250
COMPASS 1 04 Jul 21:51:09 21:55:00 36° 264° (W) 21:58:53 437.405
HUMSAT D 04 Jul 21:52:33 21:56:02 28° 66° (ENE) 21:59:34 437.325/437.525
PRISM 04 Jul 21:57:18 21:59:51 15° 301° (WNW) 22:02:16 437.425
AISAT 04 Jul 22:01:11 22:04:29 21° 62° (ENE) 22:07:52 437.250
PCSat 04 Jul 22:02:03 22:04:51 14° 15° (NNE) 22:07:42 145.827
CUTE 1.7 + AOD 2 04 Jul 22:03:27 22:06:38 20° 270° (W) 22:09:45 437.475
CANX-2 04 Jul 22:07:19 22:10:10 17° 271° (W) 22:12:55 2200.000
FUNcube-1 04 Jul 22:12:05 22:16:17 89° 238° (WSW) 22:20:28 145.935
CUBEBUG 1 04 Jul 22:18:17 22:21:08 17° 60° (ENE) 22:24:07 437.445
AUBIESAT-1 04 Jul 22:25:35 22:29:45 84° 110° (ESE) 22:34:14 437.475
UWE-3 04 Jul 22:25:54 22:30:02 50° 260° (W) 22:34:07 435.000/436.395/437.385
SO-50 04 Jul 22:26:17 22:28:59 14° 9° (N) 22:31:44 436.795
CINEMA 3 04 Jul 22:27:42 22:31:13 22° 268° (W) 22:34:34 145.822/145.860
ESTCUBE 1 04 Jul 22:34:07 22:37:55 27° 64° (ENE) 22:41:48 437.505/2401.250
Cosmos 2499 04 Jul 22:36:50 22:44:37 85° 262° (W) 22:53:01 435.465 / 435.565
GONETS M04 04 Jul 22:44:53 22:51:26 24° 282° (WNW) 22:57:40
UNISAT 6 04 Jul 22:48:07 22:51:02 18° 90° (E) 22:54:07 437.425
VELOX 1 04 Jul 22:49:04 22:53:25 52° 70° (ENE) 22:57:47 145.980
DX 1 04 Jul 22:56:49 23:01:12 76° 256° (WSW) 23:05:37 434.975-435.025
M-CUBED/EXP-1 PRIME 04 Jul 23:00:33 23:04:26 40° 296° (WNW) 23:08:35 437.505
ZACube-1 04 Jul 23:13:33 23:16:53 22° 268° (W) 23:20:07 437.345
DELFI C3 04 Jul 23:13:58 23:16:46 18° 270° (W) 23:19:30 145.870
CUBEBUG 2 04 Jul 23:14:20 23:16:52 15° 272° (W) 23:19:14 437.445
50 SAT 04 Jul 23:14:59 23:18:49 77° 256° (WSW) 23:22:41 437.505
UKube-1 04 Jul 23:17:16 23:21:30 51° 259° (W) 23:25:47 .
SPROUT 04 Jul 23:18:15 23:21:22 20° 62° (ENE) 23:24:35 437.525
Oscar 11 04 Jul 23:23:10 23:25:04 12° 274° (W) 23:26:46 145.826/435.025
HUMSAT D 04 Jul 23:28:01 23:31:44 31° 265° (W) 23:35:24 437.325/437.525
QB50P1 04 Jul 23:29:19 23:32:18 19° 91° (E) 23:35:22 145.935-145.965
ANTELSAT 04 Jul 23:31:47 23:36:00 45° 98° (E) 23:40:18 437.575/2403.000
AISAT 04 Jul 23:36:21 23:40:45 54° 260° (W) 23:45:09 437.250
NANOSAT C BR1 04 Jul 23:43:00 23:46:29 25° 93° (E) 23:50:01 145.865
TIGRISAT 04 Jul 23:43:53 23:48:12 57° 101° (E) 23:52:34 435.000
PCSat 04 Jul 23:45:02 23:49:58 34° 40° (NE) 23:54:55 145.827
DUCHIFAT 1 04 Jul 23:49:41 23:53:19 28° 94° (E) 23:56:59 145.980
CUBEBUG 1 04 Jul 23:52:38 23:57:04 67° 258° (WSW) 00:01:29 437.445
POLYITAN 1 04 Jul 23:55:15 23:59:06 34° 96° (E) 00:02:57 437.675
TISAT 1 04 Jul 23:57:16 00:01:01 31° 67° (ENE) 00:04:48 437.305
AUBIESAT-1 05 Jul 00:01:39 00:04:04 15° 305° (NW) 00:06:29 437.475
BUGSAT 1 05 Jul 00:04:40 00:08:08 27° 94° (E) 00:11:37 437.445
SO-50 05 Jul 00:06:47 00:11:06 29° 32° (NNE) 00:15:25 436.795
ESTCUBE 1 05 Jul 00:10:21 00:14:38 40° 263° (W) 00:18:57 437.505/2401.250
UNISAT 6 05 Jul 00:23:55 00:28:13 57° 288° (WNW) 00:32:34 437.425
QB50P2 05 Jul 00:24:40 00:28:54 69° 102° (ESE) 00:33:05 145.880/145.840
POPSAT HIP 1 05 Jul 00:25:17 00:29:29 67° 102° (ESE) 00:33:40 437.405
VELOX 1 05 Jul 00:26:58 00:30:18 20° 269° (W) 00:33:33 145.980
Cosmos 2499 05 Jul 00:31:28 00:36:53 20° 281° (W) 00:42:13 435.465 / 435.565
BEESAT 05 Jul 00:37:00 00:40:18 19° 59° (ENE) 00:43:44 436.000
Cosmos 2491 05 Jul 00:45:35 00:51:35 20° 51° (NE) 00:57:53 435.465 / 435.565
SWISSCUBE 05 Jul 00:51:52 00:55:50 27° 63° (ENE) 00:59:54 437.505
SPROUT 05 Jul 00:52:55 00:57:08 52° 260° (W) 01:01:23 437.525
ITUPSAT 1 05 Jul 00:57:25 01:01:24 27° 63° (ENE) 01:05:29 437.325
QB50P1 05 Jul 01:04:23 01:08:29 49° 289° (WNW) 01:12:32 145.935-145.965
ANTELSAT 05 Jul 01:09:05 01:12:35 23° 296° (WNW) 01:16:03 437.575/2403.000
NANOSAT C BR1 05 Jul 01:18:33 01:22:26 36° 292° (WNW) 01:26:17 145.865
TIGRISAT 05 Jul 01:21:29 01:24:37 19° 298° (WNW) 01:27:41 435.000
DUCHIFAT 1 05 Jul 01:25:24 01:29:10 32° 293° (WNW) 01:32:53 145.980
PCSat 05 Jul 01:28:22 01:33:41 55° 242° (WSW) 01:38:57 145.827
POLYITAN 1 05 Jul 01:31:18 01:34:55 28° 294° (WNW) 01:38:29 437.675
TISAT 1 05 Jul 01:33:01 01:36:48 30° 265° (W) 01:40:31 437.305
BUGSAT 1 05 Jul 01:39:59 01:43:39 32° 293° (WNW) 01:47:15 437.445
KKS-1 05 Jul 01:43:08 01:45:40 15° 58° (ENE) 01:48:19 437.445
SO-50 05 Jul 01:47:08 01:52:08 72° 233° (SW) 01:57:00 436.795
AIST 1 05 Jul 01:48:46 01:51:24 16° 63° (ENE) 01:54:09
RS-15 05 Jul 01:55:51 02:05:06 35° 108° (ESE) 02:14:53 29.354- 29.394
QB50P2 05 Jul 02:01:44 02:04:20 16° 300° (WNW) 02:06:49 145.880/145.840
POPSAT HIP 1 05 Jul 02:02:17 02:04:55 16° 300° (WNW) 02:07:25 437.405
Oscar 19 05 Jul 02:11:47 02:16:30 36° 96° (E) 02:21:15 437.125/150
BEESAT 05 Jul 02:12:57 02:17:42 68° 257° (WSW) 02:22:31 436.000
Gurwin Techsat 1B 05 Jul 02:22:58 02:26:03 16° 86° (E) 02:29:19 435.225
ITAMSAT 1 05 Jul 02:25:48 02:28:43 15° 86° (E) 02:31:51 435.822/435.867
SWISSCUBE 05 Jul 02:28:54 02:33:29 45° 261° (W) 02:38:08 437.505
STARS 05 Jul 02:32:24 02:36:01 26° 64° (ENE) 02:39:42 437.465
ITUPSAT 1 05 Jul 02:34:31 02:39:07 45° 262° (W) 02:43:45 437.325
Cosmos 2491 05 Jul 02:41:35 02:50:23 74° 77° (ENE) 02:59:06 435.465 / 435.565
JAS-2 05 Jul 03:14:50 03:19:11 19° 86° (E) 03:24:08 435.910
KKS-1 05 Jul 03:17:18 03:21:47 79° 258° (WSW) 03:26:15 437.445
YUBILEINY 05 Jul 03:20:26 03:28:34 48° 89° (E) 03:36:49 435.215
AIST 1 05 Jul 03:25:15 03:29:36 65° 263° (W) 03:33:53
SO-50 05 Jul 03:29:51 03:31:54 12° 251° (WSW) 03:33:42 436.795
MOZHAYETS 4 05 Jul 03:40:11 03:43:47 24° 63° (ENE) 03:47:30
AO-7 05 Jul 03:42:53 03:48:10 19° 84° (E) 03:53:50 29.400- 29.500
Oscar 19 05 Jul 03:51:11 03:55:53 36° 295° (WNW) 04:00:31 437.125/150
Gurwin Techsat 1B 05 Jul 04:01:27 04:06:49 85° 286° (WNW) 04:12:09 435.225
ITAMSAT 1 05 Jul 04:03:44 04:09:00 85° 289° (WNW) 04:14:14 435.822/435.867
RS-15 05 Jul 04:05:34 04:16:34 80° 313° (NW) 04:28:02 29.354- 29.394
HORYU 2 05 Jul 04:06:16 04:09:23 19° 90° (E) 04:12:35 437.375
STARS 05 Jul 04:08:09 04:12:19 40° 262° (W) 04:16:28 437.465
Cosmos 2491 05 Jul 04:39:20 04:46:32 29° 279° (W) 04:53:29 435.465 / 435.565
Cosmos 2504 05 Jul 04:47:36 04:51:30 17° 78° (ENE) 04:55:45 435.465 / 435.565
JAS-2 05 Jul 04:58:35 05:05:06 86° 104° (ESE) 05:12:26 435.910
MOZHAYETS 4 05 Jul 05:16:19 05:20:46 48° 262° (W) 05:25:15
YUBILEINY 05 Jul 05:17:13 05:25:32 46° 292° (WNW) 05:33:50 435.215
STRAND 1 05 Jul 05:22:40 05:24:54 13° 53° (NE) 05:27:20 437.568
AO-7 05 Jul 05:34:08 05:42:33 77° 107° (ESE) 05:50:56 29.400- 29.500
PRISM 05 Jul 05:41:58 05:43:45 13° 57° (ENE) 05:45:42 437.425
HORYU 2 05 Jul 05:42:00 05:46:23 56° 289° (WNW) 05:50:47 437.375
Gurwin Techsat 1B 05 Jul 05:42:48 05:46:07 16° 305° (NW) 05:49:14 435.225
ITAMSAT 1 05 Jul 05:44:37 05:47:50 16° 305° (NW) 05:50:52 435.822/435.867
CUBESAT XI-V 05 Jul 05:45:03 05:49:21 37° 67° (ENE) 05:53:43 437.345
RS-15 05 Jul 06:20:31 06:30:53 41° 343° (NNW) 06:41:40 29.354- 29.394
Cosmos 2504 05 Jul 06:35:47 06:42:42 86° 100° (E) 06:49:43 435.465 / 435.565
JAS-2 05 Jul 06:44:42 06:49:41 24° 302° (WNW) 06:54:54 435.910
CUTE-I 05 Jul 06:44:50 06:49:18 27° 92° (E) 06:53:50 437.470
CUSAT 1 05 Jul 06:55:36 06:57:52 13° 90° (E) 07:00:11 437.405
STRAND 1 05 Jul 06:58:09 07:03:16 69° 72° (ENE) 07:08:26 437.568
PRISM 05 Jul 07:14:25 07:18:36 89° 250° (WSW) 07:22:51 437.425
Cubesat XI-IV 05 Jul 07:18:52 07:24:06 50° 99° (E) 07:29:19 437.490
YUBILEINY 05 Jul 07:21:50 07:25:23 12° 320° (NW) 07:28:31 435.215
CUBESAT XI-V 05 Jul 07:22:39 07:26:51 31° 266° (W) 07:31:02 437.345
AO-7 05 Jul 07:27:32 07:34:46 33° 309° (NW) 07:41:50 29.400- 29.500
BEESAT 3 05 Jul 07:33:25 07:37:08 35° 120° (ESE) 07:40:56 437.485
O/OREOS (USA 219) 05 Jul 07:36:15 07:40:19 36° 108° (ESE) 07:44:27 437.305
AUBIESAT-1 05 Jul 07:44:10 07:46:50 22° 58° (ENE) 07:49:40 437.475
BEESAT 2 05 Jul 07:46:43 07:50:32 38° 121° (ESE) 07:54:25 435.950
BRITE-PL 05 Jul 07:51:35 07:52:59 12° 84° (E) 07:54:36 437.365/2234.400
GONETS M04 05 Jul 07:59:30 08:05:26 22° 77° (ENE) 08:11:41
DANDE 05 Jul 08:01:30 08:07:40 38° 96° (E) 08:12:32 436.750
M-CUBED/EXP-1 PRIME 05 Jul 08:18:34 08:21:51 58° 67° (ENE) 08:25:20 437.505
CUTE-I 05 Jul 08:24:29 08:29:42 52° 292° (WNW) 08:34:52 437.470
Cosmos 2504 05 Jul 08:30:52 08:36:02 21° 302° (WNW) 08:41:02 435.465 / 435.565
CUSAT 1 05 Jul 08:34:10 08:40:17 86° 100° (E) 08:44:51 437.405
RS-15 05 Jul 08:36:15 08:46:46 40° 16° (NNE) 08:57:48 29.354- 29.394
ISS 05 Jul 08:37:54 08:40:37 25° 144° (SE) 08:43:24 145.825
STRAND 1 05 Jul 08:39:20 08:43:03 19° 271° (W) 08:46:37 437.568
HO-68 05 Jul 08:51:15 08:57:01 26° 90° (E) 09:02:56 435.675
PRISM 05 Jul 08:53:57 08:54:47 10° 275° (W) 08:55:22 437.425
SEEDS 05 Jul 08:55:18 08:57:43 15° 88° (E) 09:00:18 437.485
GOMX 1 05 Jul 08:58:48 09:02:37 32° 95° (E) 09:06:22 467.674
VERMONT LUNAR 05 Jul 08:59:17 09:01:05 14° 169° (S) 09:02:55 437.305
Cubesat XI-IV 05 Jul 08:59:23 09:04:00 29° 298° (WNW) 09:08:31 437.490
AAUSAT CUBESAT 2 05 Jul 09:04:33 09:06:25 13° 86° (E) 09:08:27 437.432
AIST 2 05 Jul 09:10:45 09:14:59 68° 126° (SE) 09:19:15 435.215
BEESAT 3 05 Jul 09:11:18 09:15:06 35° 320° (NW) 09:18:55 437.485
TIGRISAT 05 Jul 09:13:27 09:14:54 12° 57° (ENE) 09:16:31 435.000
O/OREOS (USA 219) 05 Jul 09:15:48 09:19:49 31° 308° (NW) 09:23:49 437.305
AUBIESAT-1 05 Jul 09:18:28 09:21:30 31° 258° (WSW) 09:24:40 437.475
AO-7 05 Jul 09:22:19 09:25:04 12° 334° (NNW) 09:27:34 29.400- 29.500
BEESAT 2 05 Jul 09:24:52 09:28:40 34° 320° (NW) 09:32:28 435.950
BRITE-PL 05 Jul 09:27:56 09:32:21 79° 285° (WNW) 09:36:31 437.365/2234.400
Oscar 11 05 Jul 09:29:17 09:30:30 11° 85° (E) 09:31:59 145.826/435.025
COMPASS 1 05 Jul 09:30:13 09:33:48 26° 93° (E) 09:37:26 437.405
Cosmos 2499 05 Jul 09:31:14 09:33:56 13° 74° (ENE) 09:37:05 435.465 / 435.565
PHONESAT 2.4 05 Jul 09:31:25 09:32:05 10° 159° (SSE) 09:32:48 2401.200-2431.200
DOVE 4 05 Jul 09:38:13 09:42:18 51° 99° (E) 09:46:21 437.250
CUTE 1.7 + AOD 2 05 Jul 09:42:58 09:47:10 52° 99° (E) 09:51:23 437.475
DANDE 05 Jul 09:44:37 09:50:51 39° 288° (WNW) 09:55:37 436.750
CANX-2 05 Jul 09:46:26 09:50:43 63° 101° (E) 09:54:58 2200.000
QB50P2 05 Jul 09:48:37 09:50:19 12° 58° (ENE) 09:52:11 145.880/145.840
POPSAT HIP 1 05 Jul 09:49:11 09:50:49 12° 57° (ENE) 09:52:36 437.405
UNISAT 6 05 Jul 09:51:12 09:54:42 26° 65° (ENE) 09:58:16 437.425
GONETS M04 05 Jul 09:52:21 10:01:09 86° 98° (E) 10:09:57
M-CUBED/EXP-1 PRIME 05 Jul 09:56:09 09:57:14 11° 267° (W) 09:58:10 437.505
FUNcube-1 05 Jul 09:57:40 09:59:29 13° 87° (E) 10:01:30 145.935
CUTE-I 05 Jul 10:07:31 10:08:42 11° 311° (NW) 10:09:38 437.470
UWE-3 05 Jul 10:11:39 10:14:58 22° 92° (E) 10:18:24 435.000/436.395/437.385
ISS 05 Jul 10:13:32 10:16:47 82° 342° (NNW) 10:20:03 145.825
CINEMA 3 05 Jul 10:16:50 10:20:57 60° 101° (E) 10:25:08 145.822/145.860
CUSAT 1 05 Jul 10:20:02 10:23:11 15° 296° (WNW) 10:25:45 437.405
QB50P1 05 Jul 10:25:56 10:29:24 26° 65° (ENE) 10:32:56 145.935-145.965
SEEDS 05 Jul 10:29:46 10:34:00 64° 287° (WNW) 10:38:13 437.485
ANTELSAT 05 Jul 10:34:53 10:39:07 66° 73° (ENE) 10:43:21 437.575/2403.000
VERMONT LUNAR 05 Jul 10:35:18 10:37:19 16° 186° (S) 10:39:21 437.305
GOMX 1 05 Jul 10:37:05 10:40:44 28° 294° (WNW) 10:44:15 467.674
HO-68 05 Jul 10:38:20 10:45:29 73° 291° (WNW) 10:52:36 435.675
AAUSAT CUBESAT 2 05 Jul 10:38:23 10:42:36 74° 286° (WNW) 10:46:48 437.432
NANOSAT C BR1 05 Jul 10:39:23 10:43:10 33° 67° (ENE) 10:46:59 145.865
DX 1 05 Jul 10:42:28 10:44:39 14° 87° (E) 10:47:00 434.975-435.025
DUCHIFAT 1 05 Jul 10:45:51 10:49:44 37° 68° (ENE) 10:53:39 145.980
TIGRISAT 05 Jul 10:46:45 10:51:01 84° 76° (ENE) 10:55:18 435.000
DELFI C3 05 Jul 10:47:13 10:51:10 46° 98° (E) 10:55:07 145.870
RS-15 05 Jul 10:49:42 11:01:19 76° 46° (NE) 11:13:28 29.354- 29.394
AIST 2 05 Jul 10:50:23 10:53:57 25° 326° (NNW) 10:57:29 435.215
POLYITAN 1 05 Jul 10:52:04 10:56:06 45° 70° (ENE) 11:00:09 437.675
BEESAT 3 05 Jul 10:52:29 10:54:13 12° 342° (NNW) 10:55:53 437.485
ZACube-1 05 Jul 10:56:29 11:00:36 49° 99° (E) 11:04:46 437.345
BUGSAT 1 05 Jul 10:58:26 11:02:15 34° 68° (ENE) 11:06:04 437.445
CUBEBUG 2 05 Jul 10:58:33 11:02:46 81° 103° (ESE) 11:07:04 437.445
UKube-1 05 Jul 11:01:10 11:04:16 19° 91° (E) 11:07:27 .
Oscar 11 05 Jul 11:03:02 11:07:25 88° 285° (WNW) 11:11:47 145.826/435.025
COMPASS 1 05 Jul 11:05:40 11:09:33 35° 292° (WNW) 11:13:24 437.405
BEESAT 2 05 Jul 11:06:14 11:07:55 12° 343° (NNW) 11:09:33 435.950
PHONESAT 2.4 05 Jul 11:06:51 11:09:20 19° 175° (S) 11:11:49 2401.200-2431.200
HUMSAT D 05 Jul 11:07:22 11:11:00 29° 95° (E) 11:14:42 437.325/437.525
BRITE-PL 05 Jul 11:08:46 11:10:08 11° 305° (NW) 11:11:18 437.365/2234.400
DOVE 4 05 Jul 11:16:48 11:19:47 19° 298° (WNW) 11:22:39 437.250
Cosmos 2499 05 Jul 11:18:46 11:25:43 69° 95° (E) 11:32:55 435.465 / 435.565
CUTE 1.7 + AOD 2 05 Jul 11:19:36 11:22:46 20° 297° (WNW) 11:25:51 437.475
QB50P2 05 Jul 11:21:21 11:25:37 88° 77° (ENE) 11:29:53 145.880/145.840
POPSAT HIP 1 05 Jul 11:21:49 11:26:04 87° 78° (ENE) 11:30:20 437.405
AISAT 05 Jul 11:23:21 11:26:41 21° 91° (E) 11:30:06 437.250
CANX-2 05 Jul 11:23:22 11:26:14 17° 299° (WNW) 11:28:59 2200.000
UNISAT 6 05 Jul 11:27:22 11:31:22 37° 263° (W) 11:35:22 437.425
FUNcube-1 05 Jul 11:32:11 11:36:23 75° 287° (WNW) 11:40:39 145.935
CUBEBUG 1 05 Jul 11:38:18 11:41:07 17° 89° (E) 11:44:03 437.445
UWE-3 05 Jul 11:47:44 11:51:42 41° 290° (WNW) 11:55:43 435.000/436.395/437.385
ISS 05 Jul 11:50:11 11:53:23 54° 3° (N) 11:56:35 145.825
GONETS M04 05 Jul 11:52:06 11:59:19 26° 303° (WNW) 12:06:18
CINEMA 3 05 Jul 11:55:05 11:57:48 17° 299° (WNW) 12:00:26 145.822/145.860
Oscar 19 05 Jul 11:56:32 11:59:11 15° 55° (NE) 12:02:01 437.125/150
ESTCUBE 1 05 Jul 11:58:42 12:02:46 31° 95° (E) 12:06:49 437.505/2401.250
QB50P1 05 Jul 12:01:09 12:05:08 38° 263° (W) 12:09:06 145.935-145.965
VELOX 1 05 Jul 12:11:39 12:16:03 59° 101° (E) 12:20:23 145.980
ANTELSAT 05 Jul 12:13:58 12:16:26 14° 272° (W) 12:18:44 437.575/2403.000
NANOSAT C BR1 05 Jul 12:15:19 12:19:02 28° 266° (W) 12:22:42 145.865
AAUSAT CUBESAT 2 05 Jul 12:16:34 12:17:30 11° 303° (WNW) 12:18:16 437.432
DX 1 05 Jul 12:17:06 12:21:28 73° 288° (WNW) 12:25:47 434.975-435.025
50 SAT 05 Jul 12:20:54 12:24:49 90° 54° (NE) 12:28:45 437.505
DUCHIFAT 1 05 Jul 12:22:07 12:25:39 25° 267° (W) 12:29:08 145.980
DELFI C3 05 Jul 12:22:55 12:25:59 20° 296° (WNW) 12:28:58 145.870
TIGRISAT 05 Jul 12:26:58 12:28:28 11° 275° (W) 12:29:46 435.000
HO-68 05 Jul 12:27:14 12:32:12 20° 312° (NW) 12:36:57 435.675
POLYITAN 1 05 Jul 12:28:57 12:32:15 21° 269° (W) 12:35:27 437.675
AIST 2 05 Jul 12:32:50 12:33:59 11° 350° (N) 12:35:06 435.215
ZACube-1 05 Jul 12:33:32 12:36:41 20° 297° (WNW) 12:39:48 437.345
BUGSAT 1 05 Jul 12:34:08 12:37:46 27° 266° (W) 12:41:20 437.445
SPROUT 05 Jul 12:35:56 12:39:06 20° 91° (E) 12:42:20 437.525
UKube-1 05 Jul 12:36:30 12:40:44 51° 290° (WNW) 12:44:54 .
CUBEBUG 2 05 Jul 12:36:49 12:38:58 14° 301° (WNW) 12:40:59 437.445
Oscar 11 05 Jul 12:40:55 12:42:59 13° 302° (WNW) 12:44:53 145.826/435.025
HUMSAT D 05 Jul 12:43:03 12:46:46 31° 292° (WNW) 12:50:27 437.325/437.525
PHONESAT 2.4 05 Jul 12:44:26 12:46:40 16° 192° (SSW) 12:48:53 2401.200-2431.200
AO-7 05 Jul 12:59:04 13:02:47 14° 32° (NNE) 13:06:48 29.400- 29.500
AISAT 05 Jul 12:59:17 13:03:33 48° 290° (WNW) 13:07:46 437.250
QB50P2 05 Jul 13:01:01 13:02:13 11° 275° (W) 13:03:11 145.880/145.840
POPSAT HIP 1 05 Jul 13:01:19 13:02:38 11° 275° (W) 13:03:45 437.405
RS-15 05 Jul 13:02:36 13:13:12 41° 250° (WSW) 13:23:56 29.354- 29.394
FUNcube-1 05 Jul 13:11:08 13:12:03 10° 303° (WNW) 13:12:48 145.935
TISAT 1 05 Jul 13:12:53 13:16:36 30° 95° (E) 13:20:20 437.305
CUBEBUG 1 05 Jul 13:13:36 13:17:55 59° 288° (WNW) 13:22:10 437.445
Cosmos 2499 05 Jul 13:13:45 13:19:40 27° 299° (WNW) 13:25:35 435.465 / 435.565
YUBILEINY 05 Jul 13:24:51 13:32:19 31° 60° (ENE) 13:39:58 435.215
ISS 05 Jul 13:26:39 13:29:54 76° 202° (SSW) 13:33:08 145.825
Oscar 19 05 Jul 13:32:41 13:37:49 79° 74° (ENE) 13:42:59 437.125/150
ESTCUBE 1 05 Jul 13:35:31 13:39:39 34° 293° (WNW) 13:43:43 437.505/2401.250
JAS-2 05 Jul 13:36:00 13:37:20 11° 47° (NE) 13:38:56 435.910
ITAMSAT 1 05 Jul 13:47:11 13:51:54 36° 65° (ENE) 13:56:42 435.822/435.867
Gurwin Techsat 1B 05 Jul 13:47:35 13:52:25 37° 65° (ENE) 13:57:19 435.225
VELOX 1 05 Jul 13:49:02 13:52:14 19° 299° (WNW) 13:55:18 145.980
Cosmos 2491 05 Jul 13:55:36 14:00:38 18° 74° (ENE) 14:06:05 435.465 / 435.565
DX 1 05 Jul 13:55:43 13:57:00 11° 305° (NW) 13:58:06 434.975-435.025
50 SAT 05 Jul 13:57:38 13:58:53 11° 301° (WNW) 13:59:59 437.505
BEESAT 05 Jul 14:09:27 14:13:14 23° 91° (E) 14:17:05 436.000
BEESAT 3 05 Jul 14:10:30 14:13:27 19° 29° (NNE) 14:16:26 437.485
SPROUT 05 Jul 14:11:20 14:15:28 47° 290° (WNW) 14:19:33 437.525
AIST 2 05 Jul 14:12:52 14:14:23 12° 14° (NNE) 14:15:56 435.215
BEESAT 2 05 Jul 14:24:18 14:27:22 20° 30° (NNE) 14:30:28 435.950
SWISSCUBE 05 Jul 14:24:53 14:29:15 34° 96° (E) 14:33:37 437.505
ITUPSAT 1 05 Jul 14:30:45 14:35:09 34° 96° (E) 14:39:34 437.325
TISAT 1 05 Jul 14:48:39 14:52:21 30° 294° (WNW) 14:56:00 437.305
